Temperature
14 14 14 14 14 14 14 14 14 14 14 14 14 14 15 15 15 15 15 15 15 15 15 15 15 15 15 15 15 15 15 15 15 15 15 15 15 15 15 15 15 15 15
13 13 13 14 14 14 14 14 14 14 14 14 14 14 14 14 15 15 15 15 15 15 15 15 15 15 15 15 15 15 15 15 15 15 15 15 15 15 15 15 15 15 15
13 13 13 13 13 14 14 14 14 14 14 14 14 14 14 14 14 14 14 14 14 14 15 15 15 15 15 15 15 15 15 15 15 15 15 15 15 15 15 15 15 15 15
13 13 13 13 13 13 14 14 14 14 14 14 14 14 14 14 14 14 14 14 14 14 14 14 14 15 15 15 15 15 15 15 15 15 15 14 14 14 14 14 14 14 14
13 13 13 13 13 13 13 13 14 14 14 14 14 14 14 14 14 14 14 14 14 14 14 14 14 14 15 15 15 15 15 14 14 14 14 14 14 14 14 14 14 14 14
12 13 13 13 13 13 13 13 13 13 13 14 14 14 14 14 14 14 14 14 14 14 14 14 14 14 14 14 14 14 14 14 14 14 14 14 14 14 14 14 14 14 14
12 12 12 12 13 13 13 13 13 13 13 13 13 13 13 13 14 14 13 13 14 14 14 14 14 14 14 14 14 14 14 14 14 14 14 14 14 14 14 14 14 14 14
12 12 12 12 12 12 12 13 13 13 13 13 13 13 13 13 13 13 13 13 13 13 13 14 14 14 14 14 14 14 14 14 14 14 14 14 13 13 13 13 13 13 13
12 12 12 12 12 12 12 12 12 12 12 13 13 13 13 13 13 13 13 13 13 13 13 13 13 13 13 13 13 13 13 13 13 13 13 13 13 13 13 13 13 13 13
11 11 11 11 12 12 12 12 12 12 12 12 12 12 12 13 13 13 13 13 13 13 13 13 13 13 13 13 13 13 13 13 13 13 13 13 13 13 13 13 13 13 13
11 11 11 11 11 11 11 11 11 12 12 12 12 12 12 12 12 12 12 12 12 12 12 12 12 12 12 12 12 12 12 12 12 12 13 13 13 13 13 13 13 13 13
10 10 11 11 11 11 11 11 11 11 11 11 11 11 11 11 12 12 12 12 12 12 12 12 12 12 12 12 12 12 12 12 12 12 12 12 12 12 12 12 12 12 12
10 10 10 10 10 10 10 10 10 11 11 11 11 11 11 11 11 11 11 11 11 11 12 12 12 12 12 11 11 12 12 12 12 12 12 12 12 12 12 12 12 12 12
9 9 9 9 10 10 10 10 10 10 10 10 10 10 10 10 10 10 10 10 11 11 11 11 11 11 11 11 11 11 11 11 11 11 11 11 11 12 12 12 12 11 11
9 9 9 9 9 9 9 9 9 9 9 9 10 10 10 10 10 10 10 10 10 10 10 10 10 10 10 10 10 10 10 10 11 11 11 11 11 11 11 11 11 11 11
8 8 8 9 9 9 9 9 9 9 9 9 9 9 9 9 9 9 9 9 9 9 9 9 9 9 10 10 10 10 10 10 10 10 10 10 11 10 10 11 11 11 11
8 8 8 8 8 8 8 8 8 8 8 8 8 8 8 8 8 8 8 8 8 8 8 8 8 9 9 9 9 9 9 10 10 10 10 10 10 10 10 10 10 10 10
7 7 7 7 7 7 7 7 8 8 8 8 8 7 7 7 7 8 8 8 8 8 8 8 8 8 8 8 8 9 9 9 9 9 9 9 9 10 10 10 10 10 10
6 6 7 7 7 7 7 7 7 7 7 7 7 7 7 7 7 7 7 7 7 7 7 7 7 7 7 8 8 8 8 8 9 9 9 9 9 9 9 9 9 9 10
6 6 6 6 6 6 6 6 6 6 6 6 6 6 6 6 6 6 6 6 6 6 6 6 6 6 7 7 7 7 7 8 8 8 8 8 8 9 9 9 9 9 9
5 5 5 5 5 5 5 6 6 6 5 5 5 5 5 5 5 5 5 5 5 5 6 6 6 6 6 6 6 6 7 7 7 7 7 8 8 8 8 8 8 8 8
5 5 5 5 5 5 5 5 5 5 5 5 5 5 5 5 5 4 5 5 5 5 5 5 5 5 5 5 5 5 6 6 6 7 7 7 7 7 7 8 8 8 8
4 4 4 4 4 4 4 4 4 4 4 4 4 4 4 4 4 4 4 4 4 4 4 4 4 4 4 5 5 5 5 5 5 5 6 6 6 7 7 7 7 7 7
4 4 4 4 3 3 3 3 3 3 3 3 3 3 3 3 3 3 3 3 3 3 3 4 4 4 4 4 4 4 4 4 4 4 5 5 5 6 6 6 6 6 6
3 3 3 3 3 3 3 3 3 3 3 3 2 2 3 3 3 3 3 3 3 3 3 3 3 3 3 3 3 3 4 4 4 4 4 4 5 5 5 5 5 6 6
3 3 3 3 3 2 2 2 2 2 2 2 2 2 2 2 2 2 2 2 2 2 2 2 2 2 3 3 3 3 3 3 3 3 3 3 4 4 4 5 5 5 5
Wind_Speed
2 5 4 4 5 7 8 9 9 10 10 10 10 10 10 10 9 9 8 8 7 7 7 7 7 8 8 9 9 9 9 10 10 10 10 10 11 11 12 11 11 10 11
1 3 3 6 6 7 7 8 9 10 10 9 9 9 9 10 9 9 8 8 7 7 7 7 7 8 8 8 8 8 8 9 9 9 9 9 9 10 10 10 9 9 10
3 3 4 6 7 7 7 7 8 9 9 9 9 9 9 9 9 9 9 8 8 8 7 7 7 7 7 7 7 8 8 8 8 8 8 7 7 8 8 8 9 9 9
4 5 5 7 7 8 8 8 9 9 9 9 9 9 9 9 10 9 9 8 8 8 8 7 7 7 7 7 7 7 7 7 7 7 6 5 5 6 7 7 7 8 8
6 6 6 7 7 8 8 8 9 9 9 9 9 9 9 10 10 10 9 8 8 8 8 8 7 7 7 7 7 6 7 7 6 6 5 4 4 5 6 6 7 7 7
5 6 6 7 7 8 8 9 9 9 9 9 9 9 9 10 10 10 9 9 8 8 8 8 8 8 7 7 7 6 6 6 6 5 4 3 4 4 5 5 6 6 7
4 6 6 7 8 8 8 8 9 9 9 9 9 9 9 10 10 10 9 9 8 8 8 8 8 7 7 7 6 6 5 5 5 5 4 3 3 3 4 5 5 5 6
5 6 7 7 7 7 8 8 8 8 9 9 9 9 9 9 10 10 9 9 8 8 8 8 7 7 7 6 6 6 6 5 4 4 3 2 2 2 3 4 5 5 5
6 7 8 7 6 7 8 8 9 8 8 9 9 9 9 9 9 9 9 9 8 8 8 7 7 6 6 6 6 6 7 6 5 4 3 2 1 1 2 3 4 4 4
6 7 7 8 8 7 7 8 9 9 9 9 9 10 10 10 9 9 9 8 8 7 7 7 7 6 6 6 6 6 6 6 6 4 3 2 0 1 2 3 4 4 4
5 5 6 7 7 7 6 7 8 8 9 9 9 10 10 9 9 9 9 9 8 8 7 7 7 6 6 6 6 6 6 5 5 4 3 1 1 2 3 3 4 4 4
3 3 4 5 6 6 6 6 7 7 8 9 9 8 8 8 8 8 9 9 9 9 9 8 7 7 6 5 5 6 5 4 4 4 3 3 2 3 4 4 4 4 4
2 3 3 4 6 6 5 6 6 6 7 8 9 8 7 8 8 8 8 8 8 8 8 7 7 7 6 6 5 5 5 4 4 4 4 4 3 3 4 4 5 5 5
3 3 3 4 5 5 5 5 5 5 6 6 7 8 7 6 6 6 5 6 6 6 6 6 5 6 6 6 5 5 5 4 4 4 4 4 4 3 3 4 5 5 5
3 3 3 4 4 4 5 5 5 5 5 6 6 7 7 5 4 4 4 5 5 5 5 4 4 4 4 5 5 4 4 5 5 4 4 5 4 4 4 4 4 4 4
3 3 3 4 5 5 4 4 5 5 5 6 6 7 6 5 4 3 3 4 4 4 4 3 3 3 3 3 3 4 4 4 4 4 5 5 5 4 4 3 2 2 3
2 3 3 3 5 5 5 5 5 5 6 6 6 7 8 7 5 4 3 3 4 4 4 3 3 3 3 3 4 4 3 4 4 4 4 4 4 4 3 2 2 1 1
3 3 3 4 4 4 4 5 5 5 6 6 6 7 7 7 6 4 3 3 4 4 3 2 2 2 3 3 3 4 4 4 4 4 4 4 3 3 3 3 3 2 2
2 2 3 3 3 3 4 4 4 5 5 5 6 6 7 7 7 5 3 3 4 3 3 2 2 2 2 3 3 3 4 3 3 4 3 4 3 4 4 4 4 4 4
2 2 2 3 3 3 3 3 3 3 4 5 5 6 6 6 7 6 4 4 4 2 2 2 2 2 1 2 3 3 3 3 3 3 3 3 4 3 4 4 4 4 4
3 3 2 3 3 2 2 2 1 2 2 2 4 5 6 6 7 5 4 4 3 2 2 2 1 2 2 2 2 3 3 2 2 2 3 3 3 4 4 4 4 5 4
2 2 2 3 2 2 1 1 0 1 1 1 4 5 6 6 6 5 4 2 2 2 3 3 2 1 2 2 1 1 2 3 3 3 3 3 3 4 4 4 5 5 5
2 2 2 2 2 2 2 1 2 2 2 2 3 3 5 5 5 5 4 4 3 2 1 2 2 1 1 2 1 0 1 2 3 3 3 3 4 3 3 4 4 4 4
1 1 1 2 2 2 1 1 1 1 1 2 3 3 4 5 5 5 4 4 3 2 1 1 1 1 1 1 1 1 1 1 1 2 2 3 3 3 3 3 3 4 4
1 1 1 1 2 2 2 1 1 1 1 2 2 3 3 4 4 4 4 3 2 2 1 2 2 2 1 1 1 2 1 1 1 1 2 3 3 3 3 2 2 3 4
2 2 1 1 2 2 2 1 1 1 2 3 3 3 3 3 3 4 4 3 2 2 2 2 2 2 1 1 1 1 1 1 1 1 2 3 3 3 3 2 1 2 3
Wind_Direction
324 333 1 49 58 58 55 56 58 59 57 55 55 57 56 56 56 57 61 63 69 79 81 83 83 84 86 92 90 89 90 89 86 86 90 96 101 103 101 98 96 93 97
324 349 36 61 64 63 61 60 63 62 61 57 55 55 55 55 53 53 55 59 63 69 74 77 82 85 87 90 89 89 91 91 85 81 84 88 96 105 105 103 102 100 100
30 27 58 63 62 60 60 65 65 62 61 59 57 55 54 54 52 53 54 55 58 62 65 69 77 83 86 87 87 91 91 91 86 79 78 79 91 103 105 106 105 103 102
51 47 58 64 63 60 63 65 63 60 59 60 60 55 52 51 50 52 53 52 56 59 58 61 68 75 80 87 90 92 91 90 87 81 77 78 88 102 106 106 105 106 107
51 49 58 67 65 63 66 63 60 57 58 61 60 55 52 50 50 51 49 49 52 56 57 58 61 65 70 77 83 89 90 89 84 80 77 82 87 102 112 109 105 104 108
53 50 60 68 67 65 64 62 59 57 59 61 60 55 52 50 49 49 48 49 50 53 53 54 57 59 62 66 70 78 85 86 84 79 75 89 100 109 119 117 111 109 107
60 50 60 63 63 64 64 61 58 59 61 61 59 56 52 49 46 45 44 43 49 52 50 50 54 57 57 58 62 63 68 74 82 79 75 87 110 126 133 131 125 120 119
63 49 56 59 57 57 58 59 57 60 61 58 57 55 52 48 43 40 38 37 42 49 50 47 48 52 52 50 51 54 55 56 68 74 69 79 107 132 152 144 140 133 128
54 50 44 44 50 51 53 58 55 56 59 57 54 51 48 46 43 38 36 35 37 44 45 44 45 44 45 46 45 47 47 49 56 59 57 68 89 147 160 154 149 146 141
49 43 38 35 38 41 48 56 54 52 53 52 50 47 46 44 41 38 34 34 36 36 39 39 40 38 38 44 46 43 43 43 47 44 43 52 39 221 195 170 167 165 161
41 33 31 32 32 36 45 49 51 50 45 45 43 43 43 41 39 36 33 33 33 31 31 34 34 32 33 38 42 39 41 40 32 25 19 350 262 241 225 197 180 177 178
20 19 24 28 28 33 38 41 44 43 39 39 39 39 40 40 38 35 33 32 31 31 31 32 34 30 27 30 32 36 35 29 22 6 355 330 275 253 234 217 200 192 184
8 13 10 19 28 31 28 34 34 38 37 36 37 35 39 39 37 33 31 27 27 28 31 29 31 30 29 28 29 31 25 20 9 355 348 333 296 266 243 226 212 202 192
33 16 7 19 28 28 34 35 28 29 32 30 30 33 35 31 28 25 26 21 25 27 28 28 30 31 28 27 28 26 20 15 3 353 347 337 314 291 271 246 214 207 200
34 12 3 20 28 27 33 35 30 22 28 30 34 31 32 29 21 18 15 20 21 24 26 24 24 27 27 23 24 25 14 4 359 352 345 342 322 306 294 270 230 215 202
23 6 10 27 27 34 35 35 32 25 29 33 29 25 28 27 18 15 13 14 13 13 18 25 20 20 19 24 19 19 13 1 2 357 351 346 338 324 311 301 259 223 209
12 5 16 38 33 36 35 34 34 32 35 31 25 25 26 25 16 12 13 12 3 2 14 31 33 34 21 15 6 6 7 5 359 360 0 359 355 345 341 343 349 301 239
24 18 17 28 33 34 32 32 31 35 35 29 25 25 21 20 18 15 15 9 2 7 18 23 32 24 14 3 354 353 3 9 5 5 17 16 18 14 13 15 19 11 335
30 25 28 29 33 29 30 31 33 36 34 26 25 23 14 12 13 12 7 6 9 18 18 14 18 20 16 1 352 347 354 353 358 11 19 18 25 30 32 23 27 19 11
34 31 38 32 31 25 27 32 31 34 27 24 22 19 14 11 11 12 9 6 15 21 16 15 14 19 20 355 354 350 340 339 358 7 7 23 30 34 38 40 43 29 19
32 26 23 26 17 25 20 15 11 356 349 7 12 16 13 9 9 11 7 5 10 15 3 1 6 24 9 352 357 343 340 354 10 12 18 27 25 33 45 44 50 47 35
22 12 15 15 10 14 8 326 305 307 315 339 358 6 8 6 7 8 4 358 2 13 13 8 8 10 346 358 12 330 329 342 7 6 11 24 14 32 42 40 46 45 40
359 351 351 358 3 3 11 16 18 19 3 356 350 349 354 359 4 4 2 0 358 18 4 348 354 359 299 326 357 250 229 262 317 338 358 12 11 10 21 39 42 44 43
305 319 340 356 3 3 25 40 44 14 334 314 315 316 335 349 357 357 3 3 356 356 337 319 349 320 278 292 317 316 277 227 258 312 328 359 6 360 5 21 29 33 38
302 313 320 344 1 10 24 27 38 352 318 312 319 324 326 336 348 351 355 357 347 338 322 317 326 327 290 276 282 294 323 341 324 243 290 323 343 338 342 357 17 22 28
347 349 344 358 358 7 14 358 334 314 317 330 331 321 322 322 323 335 340 337 329 319 302 299 299 304 288 296 299 294 256 256 274 270 266 292 304 311 320 336 353 18 19
Height
1520 1520 1521 1521 1522 1522 1522 1522 1522 1522 1522 1522 1522 1522 1522 1523 1523 1523 1523 1523 1524 1524 1525 1526 1527 1527 1527 1528 1528 1529 1529 1529 1530 1530 1531 1531 1532 1532 1533 1533 1534 1534 1535
1519 1520 1521 1521 1522 1522 1522 1522 1522 1522 1522 1522 1522 1522 1523 1523 1523 1523 1523 1524 1524 1525 1526 1526 1527 1527 1527 1528 1528 1529 1529 1530 1531 1531 1531 1532 1532 1533 1533 1534 1534 1535 1535
1519 1520 1521 1521 1522 1522 1522 1523 1523 1522 1522 1522 1522 1523 1523 1523 1523 1523 1523 1524 1524 1525 1526 1526 1527 1527 1528 1528 1528 1529 1530 1530 1531 1531 1532 1532 1533 1533 1534 1534 1534 1535 1535
1519 1520 1521 1521 1522 1522 1522 1523 1523 1523 1522 1522 1522 1523 1523 1523 1523 1523 1523 1524 1525 1525 1525 1526 1527 1527 1528 1528 1529 1529 1530 1530 1531 1531 1532 1532 1533 1533 1534 1534 1535 1535 1535
1519 1520 1521 1521 1522 1522 1522 1523 1523 1523 1522 1522 1522 1523 1523 1523 1523 1523 1523 1524 1524 1525 1525 1526 1526 1527 1527 1528 1529 1529 1529 1530 1530 1531 1531 1532 1532 1533 1534 1534 1534 1535 1535
1519 1520 1520 1521 1521 1522 1522 1522 1522 1522 1522 1522 1522 1522 1523 1522 1522 1523 1523 1523 1524 1524 1525 1525 1526 1526 1527 1527 1528 1529 1529 1529 1530 1530 1531 1532 1532 1533 1533 1533 1534 1534 1535
1519 1520 1520 1521 1521 1522 1522 1522 1522 1522 1522 1522 1522 1522 1522 1522 1522 1522 1522 1523 1523 1523 1524 1524 1525 1526 1526 1527 1527 1528 1528 1529 1529 1530 1530 1531 1531 1532 1532 1533 1533 1534 1534
1520 1520 1520 1521 1521 1521 1522 1522 1522 1522 1522 1522 1522 1522 1521 1522 1522 1522 1522 1522 1522 1523 1523 1524 1524 1525 1525 1526 1526 1527 1527 1528 1528 1529 1529 1530 1531 1531 1531 1532 1532 1533 1534
1520 1520 1520 1520 1521 1521 1521 1521 1521 1521 1521 1521 1521 1521 1521 1521 1521 1521 1521 1521 1522 1522 1522 1522 1523 1523 1524 1524 1525 1526 1526 1527 1527 1528 1528 1529 1530 1530 1530 1531 1531 1532 1533
1520 1520 1520 1520 1520 1520 1520 1520 1520 1520 1520 1520 1520 1520 1520 1520 1520 1520 1520 1520 1520 1521 1521 1521 1521 1522 1522 1523 1523 1524 1525 1525 1526 1526 1527 1528 1528 1529 1529 1530 1530 1531 1531
1519 1519 1519 1520 1520 1519 1520 1520 1520 1520 1519 1519 1519 1519 1519 1519 1519 1519 1519 1519 1519 1519 1519 1519 1520 1520 1520 1521 1521 1522 1523 1523 1524 1524 1525 1526 1527 1527 1528 1528 1529 1529 1530
1518 1518 1518 1519 1518 1518 1518 1518 1518 1518 1518 1518 1518 1517 1517 1517 1517 1517 1517 1517 1517 1517 1518 1518 1518 1518 1518 1518 1519 1520 1520 1521 1522 1522 1523 1524 1525 1525 1526 1526 1527 1528 1528
1517 1517 1517 1517 1517 1517 1517 1517 1517 1517 1517 1516 1516 1516 1516 1516 1516 1516 1516 1516 1516 1516 1516 1516 1516 1516 1516 1516 1516 1517 1518 1519 1519 1520 1520 1521 1522 1523 1523 1524 1525 1526 1526
1516 1516 1516 1516 1516 1516 1516 1516 1515 1515 1515 1514 1514 1514 1514 1514 1514 1514 1514 1514 1513 1513 1513 1513 1513 1513 1513 1514 1514 1515 1515 1516 1516 1517 1517 1518 1519 1520 1521 1522 1522 1523 1524
1514 1515 1515 1515 1515 1514 1514 1514 1513 1513 1513 1513 1513 1512 1512 1512 1512 1512 1512 1512 1511 1511 1511 1511 1511 1511 1511 1511 1512 1512 1513 1513 1513 1514 1515 1515 1516 1517 1518 1518 1519 1520 1521
1513 1513 1513 1513 1513 1513 1512 1512 1512 1511 1511 1511 1511 1510 1510 1510 1509 1509 1509 1509 1509 1509 1509 1509 1509 1509 1509 1509 1509 1510 1510 1510 1511 1511 1511 1512 1513 1514 1515 1515 1516 1517 1518
1512 1512 1512 1511 1511 1511 1511 1510 1510 1510 1509 1509 1508 1508 1507 1507 1507 1507 1506 1506 1506 1506 1506 1506 1506 1506 1506 1506 1507 1507 1507 1507 1508 1508 1508 1509 1510 1510 1511 1512 1513 1514 1515
1511 1510 1510 1510 1509 1509 1509 1509 1508 1508 1507 1507 1506 1506 1505 1505 1504 1504 1504 1503 1503 1504 1504 1503 1503 1503 1503 1504 1504 1504 1504 1504 1505 1505 1506 1506 1507 1507 1508 1509 1510 1511 1512
1509 1509 1508 1508 1508 1507 1507 1507 1506 1506 1505 1505 1504 1504 1503 1503 1502 1501 1501 1500 1501 1501 1501 1501 1501 1501 1500 1501 1501 1501 1501 1501 1502 1502 1502 1503 1504 1504 1505 1506 1507 1508 1508
1508 1507 1507 1506 1506 1505 1505 1505 1505 1504 1504 1503 1502 1501 1501 1500 1500 1499 1498 1498 1498 1498 1498 1498 1498 1498 1498 1498 1498 1498 1498 1498 1499 1499 1499 1500 1500 1501 1502 1502 1503 1504 1505
1506 1506 1505 1504 1504 1504 1503 1503 1502 1502 1501 1501 1500 1499 1498 1498 1497 1496 1496 1496 1495 1495 1495 1495 1496 1496 1496 1496 1496 1496 1496 1495 1496 1496 1496 1497 1497 1498 1498 1499 1500 1501 1501
1504 1504 1503 1503 1502 1502 1501 1501 1500 1500 1499 1499 1498 1497 1497 1496 1495 1494 1494 1493 1493 1493 1493 1493 1493 1493 1493 1494 1494 1494 1493 1494 1492 1493 1494 1494 1494 1494 1495 1495 1496 1497 1498
1502 1502 1502 1501 1500 1500 1500 1499 1498 1498 1497 1496 1495 1495 1494 1494 1493 1492 1491 1491 1490 1490 1490 1491 1491 1491 1491 1491 1492 1493 1492 1490 1490 1491 1491 1491 1492 1492 1492 1492 1493 1493 1494
1500 1500 1500 1499 1499 1498 1497 1497 1496 1495 1494 1493 1493 1492 1492 1492 1491 1490 1490 1489 1488 1488 1488 1488 1488 1489 1489 1488 1489 1490 1491 1490 1490 1488 1489 1489 1489 1489 1489 1489 1489 1490 1491
1498 1498 1497 1497 1496 1496 1495 1495 1494 1493 1492 1491 1491 1490 1490 1489 1488 1488 1487 1487 1486 1486 1485 1485 1486 1486 1486 1486 1486 1486 1487 1487 1487 1487 1486 1486 1486 1486 1486 1486 1486 1487 1487
1496 1496 1495 1494 1494 1494 1493 1493 1492 1491 1490 1489 1488 1487 1487 1486 1485 1485 1485 1484 1484 1483 1483 1483 1483 1483 1483 1483 1483 1484 1484 1484 1484 1484 1484 1483 1483 1484 1484 1483 1483 1484 1484